CW5586 Lerum SE current weather conditions

sailwx.info

Wind from 201

Air temperature 16.1° C
Dewpoint 10.2° C

Last reported at 2019-Sep-21 17:01 UTC.
Time now 2019-Sep-21 17:43 UTC

Location: N 57°47' E 012°15'.
View on Google Maps.

See reports from other nearby stations

  
Tides and Currents Weather Stations Pressure Air Temp Water Temp Dewpoint Dewpoint Depression Visibility Wind Speed Wind Dir Waves Ship Positions
date/time (UTC)wind fromknots sea level pressurealtimeterstation pressurevisibilityair tempwater tempwave heightnotes
2019-Sep-21 17:01 201 16.1
2019-Sep-21 16:36 202 17.2
2019-Sep-21 16:16 225 2 gusting 4 17.8
2019-Sep-21 16:01 217 4 gusting 7 18.3
2019-Sep-21 15:41 224 2 gusting 6 18.9
2019-Sep-21 15:01 230 3 gusting 7 18.9
2019-Sep-21 14:41 193 6 gusting 10 18.9
2019-Sep-21 14:36 206 2 gusting 8 18.9
2019-Sep-21 14:06 248 2 gusting 5 18.3
2019-Sep-21 14:01 221 4 gusting 10 18.3
2019-Sep-21 13:36 204 4 gusting 10 18.9
2019-Sep-21 13:11 231 4 gusting 8 19.4
2019-Sep-21 13:06 214 5 gusting 8 19.4
2019-Sep-21 12:11 223 1 gusting 4 20.0
2019-Sep-21 12:06 178 1 gusting 5 20.0
2019-Sep-21 11:36 188 1 gusting 4 19.4
2019-Sep-21 11:16 172 1 gusting 2 18.9
2019-Sep-21 11:11 140 0 gusting 2 18.9
2019-Sep-21 11:01 199 0 gusting 2 17.8
2019-Sep-21 10:01 172 1 gusting 6 15.6
2019-Sep-21 09:11 182 1 gusting 2 15.0
2019-Sep-21 09:06 203 1 gusting 2 15.0
2019-Sep-21 08:41 146 0 gusting 2 13.3
2019-Sep-21 08:11 175 12.2
2019-Sep-21 08:06 213 11.7
2019-Sep-21 07:46 161 11.7
2019-Sep-21 07:41 161 10.6
2019-Sep-21 07:36 161 10.6
2019-Sep-21 07:31 161 10.0
2019-Sep-21 07:16 161 9.4
2019-Sep-21 07:11 161 9.4
2019-Sep-21 07:01 161 9.4
2019-Sep-21 06:41 161 9.4
2019-Sep-21 06:36 161 8.9
2019-Sep-21 06:31 161 8.9
2019-Sep-21 06:16 161 8.3
2019-Sep-21 06:11 161 8.3
2019-Sep-21 06:06 161 8.3
2019-Sep-21 05:46 157 7.8
2019-Sep-21 05:36 160 7.8
2019-Sep-21 05:16 160 7.8
2019-Sep-21 04:31 160 8.3
2019-Sep-21 04:11 160 7.8
2019-Sep-21 04:06 160 7.8
2019-Sep-21 03:46 160 8.3
2019-Sep-21 03:41 273 0 gusting 2 7.8
2019-Sep-21 03:31 185 8.3
2019-Sep-21 03:16 185 7.8
2019-Sep-21 03:01 185 7.8
2019-Sep-21 02:36 185 8.3
2019-Sep-21 02:31 185 8.3
2019-Sep-21 01:46 185 8.9
2019-Sep-21 01:16 185 10.0
2019-Sep-21 01:06 185 10.0
2019-Sep-21 00:06 185 10.6
2019-Sep-20 23:46 185 0 gusting 2 11.1
2019-Sep-20 23:31 196 11.1
2019-Sep-20 22:01 189 0 gusting 6 11.7
2019-Sep-20 21:01 202 1 gusting 5 12.2
2019-Sep-20 20:41 166 2 gusting 6 12.2
2019-Sep-20 20:36 201 2 gusting 5 12.2
2019-Sep-20 20:01 221 2 gusting 7 12.8
2019-Sep-20 19:41 232 1 gusting 2 12.8
2019-Sep-20 19:36 197 3 gusting 7 12.8
2019-Sep-20 19:01 216 5 gusting 8 12.8
2019-Sep-20 18:41 213 4 gusting 5 12.8
2019-Sep-20 18:31 216 1 gusting 7 12.8
2019-Sep-20 18:11 162 2 gusting 5 12.8
2019-Sep-20 17:46 201 2 gusting 4 13.3
2019-Sep-20 17:41 244 1 gusting 10 13.3
2019-Sep-20 17:16 186 1 gusting 5 13.3
2019-Sep-20 17:11 226 1 gusting 8 13.3
2019-Sep-20 16:46 206 2 gusting 6 13.3
2019-Sep-20 16:41 188 2 gusting 6 13.3
2019-Sep-20 16:31 197 2 gusting 5 13.3
2019-Sep-20 15:46 231 5 gusting 8 14.4
2019-Sep-20 15:16 227 2 gusting 6 15.0
2019-Sep-20 15:11 228 2 gusting 6 15.0
2019-Sep-20 15:01 205 2 gusting 8 15.0
2019-Sep-20 14:46 217 5 gusting 10 15.0
2019-Sep-20 14:16 197 2 gusting 6 15.6
2019-Sep-20 13:36 270 1 gusting 8 16.1
2019-Sep-20 13:16 280 2 gusting 8 16.1
2019-Sep-20 13:11 242 4 gusting 10 16.1
2019-Sep-20 12:46 217 3 gusting 10 16.1
2019-Sep-20 12:41 271 3 gusting 8 15.6
2019-Sep-20 12:31 276 3 gusting 8 15.6
2019-Sep-20 12:16 269 3 gusting 8 15.6
2019-Sep-20 12:06 205 2 gusting 8 15.0
2019-Sep-20 11:41 231 4 gusting 10 15.0
2019-Sep-20 11:31 261 3 gusting 11 15.0
2019-Sep-20 11:16 213 4 gusting 11 15.0
2019-Sep-20 11:06 210 5 gusting 11 14.4
2019-Sep-20 11:01 237 6 gusting 12 14.4
2019-Sep-20 10:36 258 4 gusting 10 13.9
2019-Sep-20 10:11 226 3 gusting 6 13.3
2019-Sep-20 10:06 292 0 gusting 2 13.3
2019-Sep-20 09:46 252 3 gusting 7 13.3
2019-Sep-20 09:11 219 0 gusting 11 12.8
2019-Sep-20 09:06 188 2 gusting 4 12.8
2019-Sep-20 09:01 220 2 gusting 8 12.8
2019-Sep-20 08:46 211 2 gusting 7 13.3
2019-Sep-20 08:31 225 5 gusting 10 12.8
2019-Sep-20 08:01 165 11.1
2019-Sep-20 07:36 171 10.6
2019-Sep-20 07:16 142 9.4
2019-Sep-20 06:46 138 8.3
2019-Sep-20 06:36 138 8.3
2019-Sep-20 06:31 138 8.3
2019-Sep-20 06:11 138 7.2
2019-Sep-20 06:01 140 7.2
2019-Sep-20 05:46 140 6.7
2019-Sep-20 05:41 140 6.7
2019-Sep-20 05:11 140 6.7
2019-Sep-20 05:06 140 6.7
2019-Sep-20 04:06 140 6.7
2019-Sep-20 04:01 140 6.7
2019-Sep-20 03:31 140 6.7
2019-Sep-20 03:16 140 6.7
2019-Sep-20 02:46 140 6.7
2019-Sep-20 02:41 140 6.7
2019-Sep-20 02:36 176 6.1
2019-Sep-20 02:01 189 6.1
2019-Sep-20 01:41 189 6.1
2019-Sep-20 01:36 189 6.1
2019-Sep-20 01:31 189 6.7
2019-Sep-20 01:16 189 6.7
2019-Sep-20 01:06 189 6.7
2019-Sep-20 01:01 217 6.7
2019-Sep-20 00:46 217 6.7
2019-Sep-20 00:31 217 6.7
2019-Sep-20 00:16 309 6.1
2019-Sep-19 23:46 309 6.1
2019-Sep-19 23:36 309 6.1
2019-Sep-19 23:31 309 6.1
2019-Sep-19 23:06 309 6.1
2019-Sep-19 23:01 309 5.6
2019-Sep-19 22:16 309 5.0
2019-Sep-19 22:11 309 5.0
2019-Sep-19 21:31 309 5.0
2019-Sep-19 21:16 309 4.4
2019-Sep-19 21:11 309 4.4
2019-Sep-19 20:41 309 5.0
2019-Sep-19 20:36 309 5.0
2019-Sep-19 20:16 309 5.0
2019-Sep-19 20:06 309 5.0
2019-Sep-19 19:46 309 5.0
2019-Sep-19 19:36 308 5.0
2019-Sep-19 19:31 304 5.6
2019-Sep-19 19:16 304 5.6
2019-Sep-19 19:01 304 6.1
2019-Sep-19 18:41 304 6.7
2019-Sep-19 18:31 304 6.7
2019-Sep-19 18:16 304 6.7
2019-Sep-19 18:11 304 6.7
2019-Sep-19 17:36 304 7.8
2019-Sep-19 17:11 304 9.4